Skip Page Navigation
NASA JPL Caltech
NASA Logo - Jet Propulsion Laboratory + View the NASA Portal
+ Center for Near-Earth Object Studies
JPL Home Earth Solar System Stars & Galaxies Technology
JPL Solar System Dynamics
BODIES ORBITS EPHEMERIDES TOOLS PHYSICAL DATA DISCOVERY FAQ SITE MAP
IMPORTANT: The SSD Announcement email list is now available. Major changes are coming in the near future, including possible hostname and/or URL changes. To be notified of such changes, subscribe to this email list.

Please visit this page for more details.


JPL Small-Body Database Browser
Search: [ help ]  
214815 (2006 UX281)
Classification: Main-belt Asteroid          SPK-ID: 2214815
Ephemeris | Orbit Diagram | Orbital Elements | Mission Design | Physical Parameters | Discovery Circumstances | Close-Approach Data ]

[ show orbit diagram ]
Orbital Elements at Epoch 2458600.5 (2019-Apr-27.0) TDB
Reference: JPL 12 (heliocentric ecliptic J2000)
 Element Value Uncertainty (1-sigma)   Units 
e .1033852084673675 4.7503e-08  
a 2.903222719425814 2.7296e-08 au
q 2.603072433350778 1.4442e-07 au
i 1.139482459978592 5.4526e-06 deg
node 165.5141344699772 0.00030492 deg
peri 118.2788654613557 0.00030652 deg
M 305.4552420826236 3.1145e-05 deg
tp 2458874.259674245379
(2020-Jan-25.75967425)
0.00015667 TDB
period 1806.836926063983
4.95
2.5482e-05
6.977e-08
d
yr
n .1992432160351209 2.8099e-09 deg/d
Q 3.203373005500849 3.0118e-08 au
  Orbit Determination Parameters
   # obs. used (total)      259  
   data-arc span      7356 days (20.14 yr)  
   first obs. used      1999-03-19  
   last obs. used      2019-05-09  
   planetary ephem.      DE431  
   SB-pert. ephem.      SB431-N16  
   condition code      0  
   norm. resid. RMS      .62839  
   source      ORB  
   producer      Otto Matic  
   solution date      2019-May-30 08:21:34  

Additional Information
 Earth MOID = 1.58627 au 
 Jupiter MOID = 1.91768 au 
 T_jup = 3.278 
[ show covariance matrix ]

Ephemeris | Orbit Diagram | Orbital Elements | Mission Design | Physical Parameters | Discovery Circumstances | Close-Approach Data ]

Physical Parameter Table
Parameter Symbol Value Units Sigma Reference Notes
absolute magnitude H 16.3   n/a MPO433405  

214815 (2006 UX281)          Discovered 2006-Oct-28 by Mt. Lemmon Survey at Mount Lemmon
Reference: 20090509/Numbers.arcLast Updated: 2009-05-11

[ show close-approach data ]
Alternate Designations
 2006 UX281 = 2004 GC48 
Ephemeris | Orbit Diagram | Orbital Elements | Mission Design | Physical Parameters | Discovery Circumstances | Close-Approach Data ]
ABOUT SSD CREDITS/AWARDS PRIVACY/COPYRIGHT GLOSSARY LINKS
FirstGov 2019-Dec-11 03:27 UT
(server date/time)  
NASA Home Page
Site Manager:   Ryan S. Park
Webmaster  Alan B. Chamberlin